Regional Weather Roundup
Issued by NWS

Home | Current Version | Previous Version | Graphics & Text | Print | Product List | Glossary On
Versions: 1 2 3 4 5 6 7 8 9 10 11 12 13 14 15 16 17 18 19 20 21 22 23 24 25 26 27 28 29 30 31 32 33 34 35 36 37 38 39 40 41 42 43 44 45 46 47 48 49 50
000
ASUS43 KMPX 262301
RWRMN
WEATHER ROUNDUP FOR MINNESOTA
NATIONAL WEATHER SERVICE TWIN CITIES/CHANHASSEN MN
600 PM CDT TUE MAY 26 2015


NOTE: "FAIR" INDICATES FEW OR NO CLOUDS BELOW 12,000 FEET WITH NO
SIGNIFICANT WEATHER AND/OR OBSTRUCTIONS TO VISIBILITY. N/A MEANS
CURRENT SKY AND/OR WEATHER CONDITIONS ARE NOT AVAILABLE.

MNZ060>063-068>070-270000-
   Twin Cities Metro

CITY           SKY/WX    TMP DP  RH WIND       PRES   REMARKS
TWIN CITIES    LGT RAIN  59  57  93 N10       29.76F
ST PAUL        LGT RAIN  58  56  93 N8        29.76F
CRYSTAL        LGT RAIN  58  56  93 N8        29.76F
BLAINE         LGT RAIN  59  59 100 NW7       29.77F
LAKEVILLE      LGT RAIN  57  55  94 N9        29.76F
EDEN PRAIRIE   LGT RAIN  59  57  93 N5        29.76F
SOUTH ST PAUL  LGT RAIN  58  57  96 N6        29.76F
LAKE ELMO      LGT RAIN  57  55  94 N9        29.77F
$$
MNZ001>005-007-008-013>017-022>024-027-028-270000-
   Northwest Minnesota

CITY           SKY/WX    TMP DP  RH WIND       PRES   REMARKS
BEMIDJI        CLOUDY    72  52  49 S3        29.78F
HALLOCK        SUNNY     84  39  20 SE6       29.72S
ROSEAU         PTSUNNY   79  48  34 S12       29.74F
WARROAD        PTSUNNY   75  54  46 SW8       29.75S HAZE
THIEF RVR FALL PTSUNNY   81  48  32 SW5       29.75F
CROOKSTON      PTSUNNY   79  54  41 SE13      29.74S THUNDER
FOSSTON        PTSUNNY   75  52  43 CALM      29.78S
DETROIT LAKES  CLOUDY    72  52  49 SW6       29.81S
MOORHEAD       CLOUDY    75  55  50 S6        29.78S
PARK RAPIDS    CLOUDY    74  49  41 CALM      29.79S
MAHNOMEN       FAIR      74  53  48 SW6       29.78F
$$
MNZ006-009>011-018-025>026-270000-
   North Central Minnesota

CITY           SKY/WX    TMP DP  RH WIND       PRES   REMARKS
BAUDETTE       MOSUNNY   80  49  33 NE6       29.74F
FLAG ISLAND    LGT RAIN  64  55  72 S5        29.73S
INTL FALLS     PTSUNNY   75  50  41 SE5       29.75F
WASKISH        PTSUNNY   72  55  56 CALM      29.77F
BIG FORK       CLOUDY   N/A N/A N/A SW5       29.79S
LONGVILLE      CLOUDY    72  52  49 CALM      29.79S
GRAND RAPIDS   CLOUDY    70  50  49 CALM      29.80S
CRANE LAKE     CLOUDY    72  48  43 CALM      29.79S
COOK           CLOUDY    70  48  46 CALM      29.79S
WALKER         FAIR      70  50  50 CALM      29.79F
$$
MNZ012-019>021-037-270000-
   Northeast Minnesota

CITY           SKY/WX    TMP DP  RH WIND       PRES   REMARKS
DULUTH         CLOUDY    59  51  75 E8        29.80F
HIBBING        CLOUDY    67  49  52 S5        29.80S
EVELETH        CLOUDY    64  48  55 S6        29.81S
DULUTH HARBOR  CLOUDY    50  48  93 NE3       29.81F FOG
TWO HARBORS    CLOUDY    59  54  82 NE6       29.79F
GRAND MARAIS     N/A     54  50  86 CALM      29.79F
G MARAIS ARPRT CLOUDY    57  48  72 SE5       29.82S
$$
MNZ029>031-032-039>041-046>048-054>057-064-270000-
   West Central Minnesota

CITY           SKY/WX    TMP DP  RH WIND       PRES   REMARKS
FERGUS FALLS   CLOUDY    73  54  49 W5        29.79S
WHEATON        CLOUDY    70  54  56 S3        29.82S
MORRIS         CLOUDY    72  54  53 E3        29.80S
ALEXANDRIA     CLOUDY    68  51  54 E6        29.82F
ELBOW LAKE     FAIR      70  54  56 NW3       29.80S
WADENA         CLOUDY    72  52  49 CALM      29.80S
GLENWOOD       CLOUDY    68  52  56 N9        29.82S
APPLETON       CLOUDY    72  52  49 NE7       29.80S
BENSON         CLOUDY    70  50  49 E3        29.80F
ORTONVILLE     CLOUDY    70  52  52 NW6       29.81S
MADISON        CLOUDY    70  54  56 N5        29.81S
WILLMAR        FAIR      63  55  77 NE5       29.82S
$$
MNZ033>034-036-042>043-049>051-058-059-270000-
   Central Minnesota

CITY           SKY/WX    TMP DP  RH WIND       PRES   REMARKS
ST CLOUD       CLOUDY    61  55  81 CALM      29.79F
SAUK CENTRE    FAIR      64  56  74 E5        29.81S
PAYNESVILLE    CLOUDY    59  55  85 CALM      29.81S
AITKIN         CLOUDY    66  54  63 NE3       29.78F
PINE RIVER     CLOUDY    70  54  56 SE6       29.83S
BRAINERD       CLOUDY    66  54  65 CALM      29.80S
STAPLES        CLOUDY    70  52  52 CALM      29.79F
LONG PRAIRIE   FAIR      64  54  68 E3        29.81S
LITTLE FALLS   CLOUDY    63  54  72 CALM      29.80S
LITCHFIELD     CLOUDY    61  59  94 CALM      29.81S
BUFFALO        CLOUDY    57  55  91 CALM      29.80S
MAPLE LAKE     CLOUDY    59  57  93 N5        29.80F
$$
MNZ037-044-045-052-053-270000-
   East Central Minnesota

CITY           SKY/WX    TMP DP  RH WIND       PRES   REMARKS
PRINCETON      CLOUDY    63  55  77 N8        29.79F
MORA           CLOUDY    61  52  72 N6        29.80F
CAMBRIDGE      LGT RAIN  59  52  77 CALM      29.77F
RUSH CITY      CLOUDY    57  55  93 N8        29.78F
MOOSE LAKE     CLOUDY    61  55  82 NE9       29.77F
HINCKLEY       MOCLDY    59  57  94 CALM      29.78F
CLOQUET        CLOUDY    61  50  67 E9        29.80S
MCGREGOR       CLOUDY    64  54  68 E5        29.80F
$$
MNZ071>073-080-081-089-090-097-098-270000-
   Southwest Minnesota

CITY           SKY/WX    TMP DP  RH WIND       PRES   REMARKS
MONTEVIDEO     CLOUDY    68  57  68 CALM      29.81F
GRANITE FALLS  CLOUDY    64  56  75 N3        29.83S
CANBY          CLOUDY    68  54  61 N5        29.82F
MARSHALL       CLOUDY    63  52  67 CALM      29.81S
REDWOOD FALLS  CLOUDY    60  57  89 NW5       29.81R
OLIVIA         CLOUDY    59  52  77 N7        29.81R
PIPESTONE      CLOUDY    64  55  72 N7        29.83S
WINDOM         LGT RAIN  57  55  94 NW9       29.82S
WORTHINGTON    CLOUDY    61  52  72 N10       29.83S
JACKSON        DRIZZLE   59  55  88 NW8       29.82F
TRACY          CLOUDY    61  57  87 CALM      29.82F
SLAYTON        CLOUDY    61  57  86 N7        29.83F
$$
MNZ065>067-074>077-082>085-091>093-270000-
   South Central Minnesota

CITY           SKY/WX    TMP DP  RH WIND       PRES   REMARKS
MANKATO        CLOUDY    57  55  94 N9        29.79S
NEW ULM        LGT RAIN  57  57 100 NW6       29.80S
ST JAMES       RAIN      59  57  94 NW6       29.81S
FAIRMONT       CLOUDY    57  52  82 NW12      29.80S
GLENCOE        LGT RAIN  58  58  98 N3        29.79S
FARIBAULT      DRIZZLE   59  57  94 NW8       29.77S
OWATONNA       LGT RAIN  61  57  88 NW12      29.77S
WASECA         LGT RAIN  55  54  94 NW8       29.79S
ALBERT LEA     DRIZZLE   63  59  88 NW5       29.77S
$$
MNZ078>079-086>088-094>096-270000-
   Southeast Minnesota

CITY           SKY/WX    TMP DP  RH WIND       PRES   REMARKS
ROCHESTER      LGT RAIN  61  59  93 NW17      29.76R
RED WING       LGT RAIN  61  59  94 N6        29.73S
STANTON        LGT RAIN  60  57  89 NW9       29.75S
DODGE CENTER   LGT RAIN  61  59  94 NW9       29.76S
WINONA         RAIN      61  59  94 NW9       29.70R
AUSTIN         LGT RAIN  63  57  82 W10       29.76S
PRESTON        CLOUDY    62  58  87 NW15G21   29.75R
$$
ABBREVIATIONS USED IN REMARKS
   TC - TEMPERATURES IN CELSIUS
  WCI - WIND CHILL INDEX
   HX - HEAT INDEX
  VSB - VISIBILITY
$$



USA.gov is the U.S. government's official web portal to all federal, state and local government web resources and services.